Mullan Pass, ID

1:26 PM PST on November 17, 2017 (GMT -0800)
Mullan Pass

Weather History for KMLP - April, 2013

Change the Weather History Date:

Sunday, April 21, 2013

  Actual Average (K3TH) Record (K3TH)
Temperature  
Mean Temperature 24 °F -  
Max Temperature 30 °F 57 °F 78 °F (1998)
Min Temperature 17 °F 36 °F 32 °F (1997)
Degree Days  
Heating Degree Days 42    
Moisture  
Dew Point 25 °F    
Average Humidity 97    
Maximum Humidity 100    
Minimum Humidity 86    
Precipitation  
Precipitation 0.89 in - - ()
Sea Level Pressure  
Sea Level Pressure 30.01 in    
Wind  
Wind Speed 4 mph (West)    
Max Wind Speed 8 mph    
Max Gust Speed 23 mph    
Visibility 3 miles    
Events Fog , Snow    
Averages and records for this station are not official NWS values.
T = Trace of Precipitation, MM = Missing Value Source: NWS Daily Summary

Daily Weather History Graph

Daily Weather History Graph

Search for Another Location

Airport or City:

Trip Planner

Search our weather history database for the weather conditions in past years. The results will help you decide how hot, cold, wet, or windy it might be!

Date:

Astronomy

Apr. 21, 2013 Rise Set
Actual Time 5:42 AM PDT 7:41 PM PDT
Civil Twilight 5:09 AM PDT 8:14 PM PDT
Nautical Twilight 4:29 AM PDT 8:54 PM PDT
Astronomical Twilight 3:44 AM PDT 9:40 PM PDT
Moon 3:14 PM PDT (4/21) 3:25 AM PDT (4/21)
Length of Visible Light 15h 04m
Length of Day
13h 58m
Waxing Gibbous, 81% of the Moon is Illuminated
Apr 21
Waxing Gibbous
Apr 25
Full
May 2
Last Quarter
May 9
New
May 17
First Quarter

Hourly Weather History & Observations

Time (PDT) Temp. Windchill Dew Point Humidity Pressure Visibility Wind Dir Wind Speed Gust Speed Precip Events Conditions
12:00 AM 30.2 °F 25.4 °F 28.4 °F 93% 29.99 in 10.0 mi Variable 4.6 mph 23.0 mph N/A   Overcast
12:25 AM 30.2 °F 22.6 °F 28.4 °F 93% 30.00 in 10.0 mi WNW 8.1 mph 19.6 mph N/A   Mostly Cloudy
12:41 AM 30.2 °F 24.3 °F 28.4 °F 93% 30.00 in 10.0 mi Variable 5.8 mph 17.3 mph N/A   Mostly Cloudy
12:53 AM 28.9 °F 21.9 °F 28.0 °F 96% 29.93 in 10.0 mi NW 6.9 mph 18.4 mph N/A   Mostly Cloudy
1:14 AM 30.2 °F 25.4 °F 28.4 °F 93% 30.00 in 10.0 mi Variable 4.6 mph - N/A   Overcast
1:49 AM 30.2 °F 26.7 °F 28.4 °F 93% 30.01 in 10.0 mi Variable 3.5 mph - N/A   Overcast
1:53 AM 30.0 °F - 28.9 °F 96% 29.94 in 10.0 mi Calm Calm - N/A   Overcast
2:25 AM 28.4 °F 21.2 °F 28.4 °F 100% 30.00 in 1.8 mi Variable 6.9 mph - 0.01 in Snow Light Snow
2:39 AM 28.4 °F 24.6 °F 28.4 °F 100% 30.00 in 1.0 mi Variable 3.5 mph - 0.01 in Snow Light Snow
2:49 AM 28.4 °F 24.6 °F 28.4 °F 100% 30.00 in 0.8 mi West 3.5 mph - 0.02 in Snow Light Snow
2:53 AM 28.9 °F 25.2 °F 28.9 °F 100% 29.94 in 0.8 mi Variable 3.5 mph - 0.02 in Snow Light Snow
3:03 AM 28.4 °F - 28.4 °F 100% 30.00 in 1.5 mi Calm Calm - 0.00 in Snow Light Snow
3:08 AM 28.4 °F 24.6 °F 28.4 °F 100% 30.00 in 0.8 mi Variable 3.5 mph - 0.00 in Snow Light Snow
3:20 AM 28.4 °F 22.2 °F 28.4 °F 100% 30.00 in 0.2 mi Variable 5.8 mph - 0.01 in Fog , Snow Light Snow
3:51 AM 28.4 °F 23.3 °F 28.4 °F 100% 29.99 in 0.5 mi Variable 4.6 mph - 0.03 in Fog , Snow Light Snow
3:53 AM 28.9 °F 23.9 °F 28.0 °F 96% 29.93 in 0.5 mi Variable 4.6 mph - 0.03 in Fog , Snow Light Snow
4:16 AM 28.4 °F 21.2 °F 28.4 °F 100% 29.99 in 0.2 mi SW 6.9 mph - 0.00 in Fog , Snow Light Snow
4:25 AM 28.4 °F 23.3 °F 28.4 °F 100% 29.99 in 0.5 mi WSW 4.6 mph - 0.01 in Fog , Snow Light Snow
4:38 AM 28.4 °F 23.3 °F 28.4 °F 100% 29.99 in 0.2 mi Variable 4.6 mph - 0.01 in Fog , Snow Light Snow
4:53 AM 28.0 °F 20.8 °F 27.0 °F 96% 29.93 in 0.5 mi Variable 6.9 mph - 0.01 in Fog , Snow Light Snow
5:07 AM 28.4 °F - 26.6 °F 93% 30.00 in 0.2 mi Calm Calm - 0.00 in Fog , Snow Light Snow
5:19 AM 28.4 °F - 26.6 °F 93% 29.99 in 0.2 mi Calm Calm - 0.00 in Fog , Snow Light Snow
5:50 AM 26.6 °F 21.2 °F 26.6 °F 100% 29.99 in 0.2 mi SW 4.6 mph - 0.00 in Fog , Snow Light Snow
5:53 AM 27.0 °F 20.5 °F 27.0 °F 100% 29.93 in 0.2 mi SW 5.8 mph - 0.00 in Fog , Snow Light Snow
6:02 AM 26.6 °F 20.0 °F 26.6 °F 100% 29.99 in 0.5 mi SW 5.8 mph - 0.00 in Fog , Snow Snow
6:19 AM 26.6 °F 20.0 °F 26.6 °F 100% 29.99 in 0.2 mi Variable 5.8 mph - 0.01 in Fog , Snow Snow
6:40 AM 26.6 °F 21.2 °F 26.6 °F 100% 29.99 in 0.5 mi Variable 4.6 mph - 0.01 in Fog , Snow Light Snow
6:53 AM 27.0 °F 21.6 °F 26.1 °F 96% 30.08 in 0.8 mi Variable 4.6 mph - 0.01 in Snow Light Snow
7:03 AM 26.6 °F - 26.6 °F 100% 30.00 in 0.2 mi Calm Calm - 0.00 in Fog , Snow Light Snow
7:50 AM 26.6 °F - 26.6 °F 100% 30.00 in 0.8 mi Calm Calm - 0.04 in Snow Light Snow
7:53 AM 27.0 °F 23.0 °F 27.0 °F 100% 30.08 in 0.5 mi Variable 3.5 mph - 0.04 in Fog , Snow Light Snow
8:03 AM 28.4 °F 24.6 °F 26.6 °F 93% 30.00 in 0.2 mi Variable 3.5 mph - 0.00 in Fog , Snow Light Snow
8:53 AM 28.0 °F 24.2 °F 28.0 °F 100% 29.93 in 0.2 mi Variable 3.5 mph - 0.03 in Fog , Snow Light Snow
9:53 AM 28.9 °F - 28.9 °F 100% 29.92 in 0.2 mi Calm Calm - 0.01 in Fog , Snow Snow
10:29 AM 28.4 °F - 28.4 °F 100% 29.98 in 0.2 mi Calm Calm - 0.01 in Fog , Snow Light Snow
10:53 AM 28.9 °F - 28.9 °F 100% 29.92 in 0.2 mi Calm Calm - 0.01 in Fog , Snow Light Snow
11:02 AM 28.4 °F 24.6 °F 28.4 °F 100% 29.98 in 0.2 mi Variable 3.5 mph - 0.00 in Fog , Snow Light Snow
11:33 AM 30.2 °F 24.3 °F 30.2 °F 100% 29.98 in 0.2 mi Variable 5.8 mph - 0.01 in Fog , Snow Light Snow
11:53 AM 30.0 °F 25.2 °F 28.9 °F 96% 29.91 in 0.2 mi Variable 4.6 mph - 0.02 in Fog , Snow Light Snow
12:24 PM 30.2 °F 26.7 °F 30.2 °F 100% 29.97 in 0.2 mi Variable 3.5 mph - 0.02 in Fog , Snow Snow
12:53 PM 30.0 °F 26.5 °F 30.0 °F 100% 29.91 in 0.2 mi Variable 3.5 mph - 0.03 in Fog , Snow Snow
1:29 PM 28.4 °F 23.3 °F 28.4 °F 100% 29.97 in 0.2 mi Variable 4.6 mph - 0.04 in Fog , Snow Snow
1:46 PM 28.4 °F 23.3 °F 28.4 °F 100% 29.96 in - Variable 4.6 mph - 0.06 in Snow Light Snow
1:53 PM 30.0 °F 26.5 °F 28.9 °F 96% 29.90 in 0.2 mi Variable 3.5 mph - 0.07 in Fog , Snow Snow
2:53 PM 28.0 °F 22.8 °F 27.0 °F 96% 30.05 in 0.2 mi NNW 4.6 mph - 0.21 in Fog , Snow Heavy Snow
3:53 PM 25.0 °F 18.1 °F 24.1 °F 96% 30.07 in 0.2 mi Variable 5.8 mph - 0.21 in Fog , Snow Snow
4:53 PM 24.1 °F - 23.0 °F 96% 30.10 in 0.2 mi Calm Calm - 0.08 in Fog , Snow Heavy Snow
5:22 PM 24.8 °F - 21.2 °F 86% 30.00 in 0.2 mi Calm Calm - 0.04 in Fog , Snow Snow
5:46 PM 23.0 °F - 21.2 °F 93% 30.01 in 0.2 mi Calm Calm - 0.08 in Fog , Snow Heavy Snow
5:53 PM 23.0 °F - 21.9 °F 96% 30.14 in 0.2 mi Calm Calm - 0.08 in Fog , Snow Snow
6:15 PM 21.2 °F - 21.2 °F 100% 30.02 in 0.5 mi Calm Calm - 0.01 in Fog , Snow Light Snow
6:53 PM 21.9 °F - 19.9 °F 92% 30.15 in 0.5 mi Calm Calm - 0.02 in Fog , Snow Light Snow
7:05 PM 21.2 °F 16.4 °F 19.4 °F 93% 30.02 in 1.0 mi Variable 3.5 mph - 0.01 in Snow Light Snow
7:31 PM 21.2 °F 16.4 °F 19.4 °F 93% 30.03 in 1.8 mi Variable 3.5 mph - 0.01 in Snow Light Snow
7:38 PM 21.2 °F 16.4 °F 19.4 °F 93% 30.03 in 2.5 mi Variable 3.5 mph - 0.01 in Snow Light Snow
7:46 PM 21.2 °F - 19.4 °F 93% 30.03 in 3.0 mi Calm Calm - 0.01 in Snow Light Snow
7:53 PM 21.0 °F 16.2 °F 19.9 °F 96% 30.16 in 2.5 mi Variable 3.5 mph - 0.01 in Snow Light Snow
7:59 PM 21.2 °F 16.4 °F 19.4 °F 93% 30.02 in 1.2 mi Variable 3.5 mph - 0.00 in   Overcast
8:21 PM 21.2 °F 16.4 °F 19.4 °F 93% 30.03 in 2.0 mi Variable 3.5 mph - 0.00 in Snow Light Snow
8:38 PM 19.4 °F - 19.4 °F 100% 30.03 in 6.0 mi Calm Calm - 0.00 in   Overcast
8:53 PM 19.0 °F 12.3 °F 17.1 °F 92% 30.17 in 10.0 mi Variable 4.6 mph - 0.00 in   Overcast
9:12 PM 17.6 °F 8.2 °F 17.6 °F 100% 30.05 in 6.0 mi Variable 6.9 mph - N/A   Overcast
9:22 PM 17.6 °F - 15.8 °F 93% 30.05 in 10.0 mi Calm Calm - 0.00 in   Overcast
9:53 PM 18.0 °F - 16.0 °F 92% 30.20 in 10.0 mi Calm Calm - 0.00 in   Overcast
10:05 PM 17.6 °F - 15.8 °F 93% 30.07 in 10.0 mi Calm Calm - N/A   Overcast
10:28 PM 17.6 °F 12.3 °F 15.8 °F 93% 30.07 in 10.0 mi Variable 3.5 mph - N/A   Overcast
10:53 PM 17.1 °F 10.0 °F 15.1 °F 92% 30.24 in 10.0 mi Variable 4.6 mph - N/A   Overcast
11:53 PM 17.1 °F 10.0 °F 15.1 °F 92% 30.25 in - Variable 4.6 mph - N/A   Overcast